User: anonymous   Login
Location: Gulgong NSW 2852, Australia
(32.2976°S, 149.5548°E)
Time: 12:58:42
(UTC+11:00)
Language:

Envisat - Orbit

View from above orbital plane
View from above orbital plane
View from above satellite
View from above satellite

Ground track
Ground track

The orbit data is extracted from the following two-line orbital elements,

1 27386U 02009A   22027.57103734  .00000086  00000-0  41929-4 0  9993
2 27386  98.1691  15.4013 0001174  87.0234  21.1689 14.38071635 43218
Epoch (UTC): 27 January 2022 13:42:17
Eccentricity: 0.0001174
inclination: 98.1691°
perigee height: 764 km
apogee height: 766 km
right ascension of ascending node: 15.4013°
argument of perigee: 87.0234°
revolutions per day: 14.38071635
mean anomaly at epoch: 21.1689°
orbit number at epoch: 4321

The dashed part of the orbit path shows where the satellite is in the earth's shadow,  

DLR